| time (UTC) | temp F | wind direction | speed MPH | gust MPH | rain 1hr in | rain 24hr in | rain mn in | humidity % | barometer mb |
| 20260508185313 | 71 | 225 | 3.0 | 5.0 | 0.00 | 0.00 | 0.00 | 1014.3 | |
| 20260508185213 | 71 | 315 | 2.0 | 4.0 | 0.00 | 0.00 | 0.00 | 1014.3 | |
| 20260508184813 | 72 | 202 | 5.0 | 7.0 | 0.00 | 0.00 | 0.00 | 1014.5 | |
| 20260508184413 | 71 | 225 | 3.0 | 5.0 | 0.00 | 0.00 | 0.00 | 1014.4 | |
| 20260508184313 | 71 | 180 | 2.0 | 4.0 | 0.00 | 0.00 | 0.00 | 1014.4 | |
| 20260508183914 | 71 | 180 | 1.0 | 2.0 | 0.00 | 0.00 | 0.00 | 1014.4 | |
| 20260508183513 | 71 | 180 | 1.0 | 3.0 | 0.00 | 0.00 | 0.00 | 1014.3 | |
| 20260508183413 | 71 | 202 | 1.0 | 3.0 | 0.00 | 0.00 | 0.00 | 1014.4 | |
| 20260508183313 | 71 | 180 | 1.0 | 3.0 | 0.00 | 0.00 | 0.00 | 1014.6 | |
| 20260508183213 | 70 | 157 | 1.0 | 2.0 | 0.00 | 0.00 | 0.00 | 1014.4 | |
| 20260508183113 | 70 | 135 | 1.0 | 2.0 | 0.00 | 0.00 | 0.00 | 1014.4 | |
| 20260508182413 | 70 | 225 | 3.0 | 6.0 | 0.00 | 0.00 | 0.00 | 1014.5 | |
| 20260508181413 | 70 | 157 | 2.0 | 2.0 | 0.00 | 0.00 | 0.00 | 1014.6 | |
| 20260508181313 | 70 | 90 | 2.0 | 2.0 | 0.00 | 0.00 | 0.00 | 1014.5 | |
| 20260508180313 | 69 | 270 | 3.0 | 4.0 | 0.00 | 0.00 | 0.00 | 1014.6 | |
| 20260508180213 | 69 | 202 | 2.0 | 3.0 | 0.00 | 0.00 | 0.00 | 1014.5 | |
| 20260508180113 | 69 | 247 | 1.0 | 2.0 | 0.00 | 0.00 | 0.00 | 1014.5 | |
| 20260508175713 | 68 | 180 | 1.0 | 2.0 | 0.00 | 0.00 | 0.00 | 1014.6 | |
| 20260508175613 | 68 | 202 | 2.0 | 4.0 | 0.00 | 0.00 | 0.00 | 1014.6 | |
| 20260508175213 | 68 | 157 | 2.0 | 3.0 | 0.00 | 0.00 | 0.00 | 1014.5 | |
| 20260508174813 | 67 | 202 | 2.0 | 3.0 | 0.00 | 0.00 | 0.00 | 1014.8 | |
| 20260508174413 | 67 | 157 | 2.0 | 2.0 | 0.00 | 0.00 | 0.00 | 1014.8 | |
| 20260508174013 | 67 | 225 | 3.0 | 6.0 | 0.00 | 0.00 | 0.00 | 1014.9 | |
| 20260508173613 | 67 | 225 | 1.0 | 3.0 | 0.00 | 0.00 | 0.00 | 1014.7 | |
| 20260508173513 | 67 | 202 | 1.0 | 3.0 | 0.00 | 0.00 | 0.00 | 1014.7 | |
| 20260508173113 | 67 | 337 | 1.0 | 2.0 | 0.00 | 0.00 | 0.00 | 1015.0 | |
| 20260508172113 | 66 | 180 | 1.0 | 2.0 | 0.00 | 0.00 | 0.00 | 1014.9 | |
| 20260508171714 | 66 | 202 | 2.0 | 3.0 | 0.00 | 0.00 | 0.00 | 1014.8 | |
| 20260508171613 | 66 | 180 | 3.0 | 5.0 | 0.00 | 0.00 | 0.00 | 1014.9 | |
| 20260508171513 | 66 | 202 | 2.0 | 3.0 | 0.00 | 0.00 | 0.00 | 1014.9 | |
| 20260508171413 | 66 | 202 | 1.0 | 2.0 | 0.00 | 0.00 | 0.00 | 1014.9 | |
| 20260508170713 | 66 | 225 | 1.0 | 2.0 | 0.00 | 0.00 | 0.00 | 1014.8 | |
| 20260508170613 | 66 | 0 | 2.0 | 4.0 | 0.00 | 0.00 | 0.00 | 1014.9 | |
| 20260508165913 | 65 | 180 | 1.0 | 3.0 | 0.00 | 0.00 | 0.00 | 1014.8 | |
| 20260508165213 | 63 | 157 | 1.0 | 2.0 | 0.00 | 0.00 | 0.00 | 1014.8 | |
| 20260508165113 | 63 | 180 | 3.0 | 4.0 | 0.00 | 0.00 | 0.00 | 1014.7 | |
| 20260508164713 | 64 | 225 | 2.0 | 2.0 | 0.00 | 0.00 | 0.00 | 1014.8 | |
| 20260508164313 | 63 | 202 | 2.0 | 3.0 | 0.00 | 0.00 | 0.00 | 1014.7 | |
| 20260508163913 | 63 | 180 | 1.0 | 2.0 | 0.00 | 0.00 | 0.00 | 1014.8 | |
| 20260508163813 | 63 | 225 | 2.0 | 2.0 | 0.00 | 0.00 | 0.00 | 1014.7 | |
| 20260508163713 | 63 | 202 | 2.0 | 3.0 | 0.00 | 0.00 | 0.00 | 1014.7 | |
| 20260508163613 | 63 | 202 | 1.0 | 2.0 | 0.00 | 0.00 | 0.00 | 1014.8 | |
| 20260508163513 | 63 | 180 | 1.0 | 2.0 | 0.00 | 0.00 | 0.00 | 1014.7 | |
| 20260508163413 | 63 | 225 | 2.0 | 3.0 | 0.00 | 0.00 | 0.00 | 1014.6 | |
| 20260508163313 | 63 | 225 | 1.0 | 3.0 | 0.00 | 0.00 | 0.00 | 1014.8 | |
| 20260508163213 | 62 | 225 | 1.0 | 2.0 | 0.00 | 0.00 | 0.00 | 1014.7 | |
| 20260508162813 | 62 | 202 | 3.0 | 4.0 | 0.00 | 0.00 | 0.00 | 1014.8 | |
| 20260508162713 | 62 | 247 | 1.0 | 2.0 | 0.00 | 0.00 | 0.00 | 1014.8 | |
| 20260508162613 | 62 | 157 | 1.0 | 1.0 | 0.00 | 0.00 | 0.00 | 1014.7 | |
| 20260508161313 | 62 | 135 | 1.0 | 2.0 | 0.00 | 0.00 | 0.00 | 1014.7 | |
| 20260508161213 | 62 | 180 | 0.0 | 2.0 | 0.00 | 0.00 | 0.00 | 1014.6 | |
| 20260508161113 | 61 | 67 | 0.0 | 0.0 | 0.00 | 0.00 | 0.00 | 1014.7 | |
| 20260508160713 | 61 | 202 | 1.0 | 1.0 | 0.00 | 0.00 | 0.00 | 1014.8 | |
| 20260508160313 | 61 | 225 | 2.0 | 4.0 | 0.00 | 0.00 | 0.00 | 1014.7 | |
| 20260508155613 | 60 | 225 | 2.0 | 2.0 | 0.00 | 0.00 | 0.00 | 1014.7 | |
| 20260508155214 | 60 | 225 | 1.0 | 3.0 | 0.00 | 0.00 | 0.00 | 1014.7 | |
| 20260508155113 | 60 | 225 | 1.0 | 2.0 | 0.00 | 0.00 | 0.00 | 1014.7 | |
| 20260508153813 | 60 | 225 | 1.0 | 2.0 | 0.00 | 0.00 | 0.00 | 1015.0 | |
| 20260508153713 | 60 | 292 | 2.0 | 3.0 | 0.00 | 0.00 | 0.00 | 1015.0 | |
| 20260508151813 | 59 | 180 | 1.0 | 2.0 | 0.00 | 0.00 | 0.00 | 1015.0 | |
| 20260508151415 | 58 | 202 | 0.0 | 1.0 | 0.00 | 0.00 | 0.00 | 1015.0 | |
| 20260508151013 | 58 | 270 | 2.0 | 3.0 | 0.00 | 0.00 | 0.00 | 1014.9 | |
| 20260508150613 | 58 | 292 | 1.0 | 2.0 | 0.00 | 0.00 | 0.00 | 1015.0 | |
| 20260508145613 | 58 | 315 | 1.0 | 1.0 | 0.00 | 0.00 | 0.00 | 1015.1 | |
| 20260508145513 | 58 | 0 | 1.0 | 2.0 | 0.00 | 0.00 | 0.00 | 1015.2 | |
| 20260508145414 | 58 | 315 | 2.0 | 3.0 | 0.00 | 0.00 | 0.00 | 1015.2 | |
| 20260508144715 | 58 | 315 | 2.0 | 3.0 | 0.00 | 0.00 | 0.00 | 1015.1 | |
| 20260508144613 | 58 | 337 | 2.0 | 3.0 | 0.00 | 0.00 | 0.00 | 1015.2 | |
| 20260508144513 | 58 | 292 | 2.0 | 2.0 | 0.00 | 0.00 | 0.00 | 1015.1 | |
| 20260508143814 | 57 | 22 | 2.0 | 3.0 | 0.00 | 0.00 | 0.00 | 1015.3 | |
| 20260508143415 | 57 | 337 | 1.0 | 1.0 | 0.00 | 0.00 | 0.00 | 1015.0 | |
| 20260508143313 | 57 | 337 | 1.0 | 1.0 | 0.00 | 0.00 | 0.00 | 1015.2 | |
| 20260508142613 | 57 | 292 | 1.0 | 2.0 | 0.00 | 0.00 | 0.00 | 1015.0 | |
| 20260508142513 | 57 | 45 | 1.0 | 1.0 | 0.00 | 0.00 | 0.00 | 1015.0 | |
| 20260508142113 | 57 | 135 | 0.0 | 0.0 | 0.00 | 0.00 | 0.00 | 1015.1 | |
| 20260508142013 | 57 | 135 | 0.0 | 0.0 | 0.00 | 0.00 | 0.00 | 1015.1 | |
| 20260508141913 | 57 | 225 | 0.0 | 0.0 | 0.00 | 0.00 | 0.00 | 1015.0 | |
| 20260508140013 | 57 | 112 | 1.0 | 2.0 | 0.00 | 0.00 | 0.00 | 1015.1 | |
| 20260508135913 | 57 | 45 | 1.0 | 1.0 | 0.00 | 0.00 | 0.00 | 1015.1 | |
| 20260508135814 | 57 | 22 | 1.0 | 3.0 | 0.00 | 0.00 | 0.00 | 1015.2 | |
| 20260508135713 | 57 | 22 | 0.0 | 1.0 | 0.00 | 0.00 | 0.00 | 1014.9 | |
| 20260508135614 | 56 | 135 | 0.0 | 0.0 | 0.00 | 0.00 | 0.00 | 1015.1 | |
| 20260508135513 | 57 | 135 | 0.0 | 1.0 | 0.00 | 0.00 | 0.00 | 1015.0 | |
| 20260508135414 | 57 | 135 | 0.0 | 1.0 | 0.00 | 0.00 | 0.00 | 1015.2 | |
| 20260508135013 | 56 | 180 | 0.0 | 0.0 | 0.00 | 0.00 | 0.00 | 1015.2 | |
| 20260508134613 | 57 | 225 | 1.0 | 1.0 | 0.00 | 0.00 | 0.00 | 1015.0 | |
| 20260508134513 | 57 | 180 | 0.0 | 0.0 | 0.00 | 0.00 | 0.00 | 1015.0 | |
| 20260508134113 | 56 | 135 | 1.0 | 1.0 | 0.00 | 0.00 | 0.00 | 1015.0 | |
| 20260508134013 | 56 | 135 | 1.0 | 2.0 | 0.00 | 0.00 | 0.00 | 1015.0 | |
| 20260508133913 | 56 | 157 | 0.0 | 1.0 | 0.00 | 0.00 | 0.00 | 1014.8 | |
| 20260508133813 | 56 | 180 | 1.0 | 2.0 | 0.00 | 0.00 | 0.00 | 1015.1 | |
| 20260508133413 | 56 | 157 | 1.0 | 2.0 | 0.00 | 0.00 | 0.00 | 1014.7 | |
| 20260508133313 | 56 | 112 | 0.0 | 1.0 | 0.00 | 0.00 | 0.00 | 1014.7 | |
| 20260508133214 | 56 | 180 | 0.0 | 1.0 | 0.00 | 0.00 | 0.00 | 1014.7 | |
| 20260508132213 | 56 | 135 | 0.0 | 1.0 | 0.00 | 0.00 | 0.00 | 1014.6 | |
| 20260508131814 | 56 | 180 | 1.0 | 2.0 | 0.00 | 0.00 | 0.00 | 1014.6 | |
| 20260508131713 | 56 | 180 | 0.0 | 1.0 | 0.00 | 0.00 | 0.00 | 1014.6 | |
| 20260508131313 | 56 | 202 | 0.0 | 1.0 | 0.00 | 0.00 | 0.00 | 1014.6 | |
| 20260508131213 | 56 | 225 | 0.0 | 1.0 | 0.00 | 0.00 | 0.00 | 1014.7 | |
| 20260508125913 | 56 | 180 | 0.0 | 1.0 | 0.00 | 0.00 | 0.00 | 1014.4 | |
| 20260508125813 | 56 | 225 | 1.0 | 1.0 | 0.00 | 0.00 | 0.00 | 1014.4 | |
| 20260508125713 | 56 | 202 | 1.0 | 2.0 | 0.00 | 0.00 | 0.00 | 1014.4 | |
| 20260508125613 | 56 | 225 | 1.0 | 2.0 | 0.00 | 0.00 | 0.00 | 1014.5 | |
| 20260508125213 | 56 | 247 | 1.0 | 2.0 | 0.00 | 0.00 | 0.00 | 1014.4 | |
| 20260508125114 | 56 | 225 | 1.0 | 2.0 | 0.00 | 0.00 | 0.00 | 1014.5 | |
| 20260508125013 | 56 | 247 | 2.0 | 2.0 | 0.00 | 0.00 | 0.00 | 1014.4 | |
| 20260508124913 | 56 | 270 | 0.0 | 2.0 | 0.00 | 0.00 | 0.00 | 1014.4 | |
| 20260508124813 | 56 | 270 | 0.0 | 1.0 | 0.00 | 0.00 | 0.00 | 1014.5 | |
| 20260508124413 | 56 | 270 | 1.0 | 1.0 | 0.00 | 0.00 | 0.00 | 1014.3 | |
| 20260508124313 | 56 | 225 | 1.0 | 2.0 | 0.00 | 0.00 | 0.00 | 1014.5 | |
| 20260508123913 | 56 | 180 | 0.0 | 1.0 | 0.00 | 0.00 | 0.00 | 1014.4 | |
| 20260508123813 | 56 | 157 | 0.0 | 1.0 | 0.00 | 0.00 | 0.00 | 1014.4 | |
| 20260508122814 | 56 | 180 | 1.0 | 2.0 | 0.00 | 0.00 | 0.00 | 1014.3 | |
| 20260508122713 | 56 | 157 | 0.0 | 1.0 | 0.00 | 0.00 | 0.00 | 1014.3 | |
| 20260508122614 | 56 | 180 | 0.0 | 1.0 | 0.00 | 0.00 | 0.00 | 1014.4 | |
| 20260508122514 | 56 | 180 | 0.0 | 0.0 | 0.00 | 0.00 | 0.00 | 1014.1 | |
| 20260508122413 | 56 | 180 | 0.0 | 0.0 | 0.00 | 0.00 | 0.00 | 1014.4 | |
| 20260508122014 | 56 | 157 | 0.0 | 0.0 | 0.00 | 0.00 | 0.00 | 1014.4 | |
| 20260508121613 | 56 | 225 | 1.0 | 2.0 | 0.00 | 0.00 | 0.00 | 1014.4 | |
| 20260508121513 | 56 | 247 | 1.0 | 1.0 | 0.00 | 0.00 | 0.00 | 1014.3 | |
| 20260508121113 | 56 | 225 | 0.0 | 1.0 | 0.00 | 0.00 | 0.00 | 1014.4 | |
| 20260508120413 | 56 | 202 | 1.0 | 1.0 | 0.00 | 0.00 | 0.00 | 1014.4 | |
| 20260508120313 | 56 | 225 | 0.0 | 1.0 | 0.00 | 0.00 | 0.00 | 1014.4 | |
| 20260508120213 | 56 | 202 | 0.0 | 0.0 | 0.00 | 0.00 | 0.00 | 1014.4 | |
| 20260508120113 | 56 | 157 | 0.0 | 0.0 | 0.00 | 0.00 | 0.00 | 1014.3 | |
| 20260508115713 | 56 | 157 | 0.0 | 0.0 | 0.00 | 0.00 | 0.00 | 1014.3 | |
| 20260508115613 | 56 | 157 | 0.0 | 1.0 | 0.00 | 0.00 | 0.00 | 1014.2 | |
| 20260508115513 | 56 | 135 | 0.0 | 1.0 | 0.00 | 0.00 | 0.00 | 1014.2 | |
| 20260508114513 | 56 | 270 | 0.0 | 0.0 | 0.00 | 0.00 | 0.00 | 1014.2 | |
| 20260508113813 | 56 | 180 | 1.0 | 1.0 | 0.00 | 0.00 | 0.00 | 1014.3 | |
| 20260508113414 | 56 | 247 | 1.0 | 2.0 | 0.00 | 0.00 | 0.00 | 1014.2 | |
| 20260508113013 | 56 | 225 | 1.0 | 1.0 | 0.00 | 0.00 | 0.00 | 1014.4 | |
| 20260508112013 | 56 | 180 | 0.0 | 1.0 | 0.00 | 0.00 | 0.00 | 1014.3 | |
| 20260508110113 | 56 | 22 | 0.0 | 0.0 | 0.00 | 0.00 | 0.00 | 1014.1 | |
| 20260508105413 | 56 | 202 | 1.0 | 1.0 | 0.00 | 0.00 | 0.00 | 1014.2 | |
| 20260508105013 | 57 | 202 | 2.0 | 2.0 | 0.00 | 0.00 | 0.00 | 1014.0 | |
| 20260508104613 | 57 | 180 | 1.0 | 2.0 | 0.00 | 0.00 | 0.00 | 1014.0 | |
| 20260508104514 | 57 | 180 | 1.0 | 1.0 | 0.00 | 0.00 | 0.00 | 1014.3 | |
| 20260508104413 | 57 | 157 | 1.0 | 2.0 | 0.00 | 0.00 | 0.00 | 1014.1 | |
| 20260508103713 | 57 | 157 | 1.0 | 3.0 | 0.00 | 0.00 | 0.00 | 1014.0 | |
| 20260508103013 | 56 | 180 | 1.0 | 2.0 | 0.00 | 0.00 | 0.00 | 1014.1 | |
| 20260508102913 | 56 | 202 | 1.0 | 2.0 | 0.00 | 0.00 | 0.00 | 1014.1 | |
| 20260508102513 | 57 | 180 | 2.0 | 2.0 | 0.00 | 0.00 | 0.00 | 1014.1 | |
| 20260508102413 | 57 | 225 | 3.0 | 4.0 | 0.00 | 0.00 | 0.00 | 1014.3 | |
| 20260508102313 | 57 | 225 | 1.0 | 2.0 | 0.00 | 0.00 | 0.00 | 1014.1 | |
| 20260508101913 | 57 | 225 | 2.0 | 2.0 | 0.00 | 0.00 | 0.00 | 1014.1 | |
| 20260508100613 | 56 | 202 | 1.0 | 2.0 | 0.00 | 0.00 | 0.00 | 1014.2 | |
| 20260508100513 | 56 | 225 | 2.0 | 3.0 | 0.00 | 0.00 | 0.00 | 1014.3 | |
| 20260508095513 | 56 | 225 | 2.0 | 4.0 | 0.00 | 0.00 | 0.00 | 1014.1 | |
| 20260508095413 | 56 | 292 | 1.0 | 2.0 | 0.00 | 0.00 | 0.00 | 1014.2 | |
| 20260508095314 | 56 | 225 | 2.0 | 3.0 | 0.00 | 0.00 | 0.00 | 1014.1 | |
| 20260508094913 | 56 | 225 | 3.0 | 4.0 | 0.00 | 0.00 | 0.00 | 1013.9 | |
| 20260508094513 | 56 | 202 | 1.0 | 2.0 | 0.00 | 0.00 | 0.00 | 1014.0 | |
| 20260508094413 | 56 | 225 | 1.0 | 2.0 | 0.00 | 0.00 | 0.00 | 1014.1 | |
| 20260508094013 | 56 | 180 | 0.0 | 1.0 | 0.00 | 0.00 | 0.00 | 1014.2 | |
| 20260508093913 | 56 | 270 | 1.0 | 1.0 | 0.00 | 0.00 | 0.00 | 1014.1 | |
| 20260508093813 | 56 | 202 | 1.0 | 2.0 | 0.00 | 0.00 | 0.00 | 1014.2 | |
| 20260508093413 | 56 | 247 | 1.0 | 2.0 | 0.00 | 0.00 | 0.00 | 1014.2 | |
| 20260508093013 | 56 | 202 | 1.0 | 2.0 | 0.00 | 0.00 | 0.00 | 1014.2 | |
| 20260508092913 | 56 | 202 | 1.0 | 2.0 | 0.00 | 0.00 | 0.00 | 1014.3 | |
| 20260508092213 | 56 | 202 | 0.0 | 1.0 | 0.00 | 0.00 | 0.00 | 1014.4 | |
| 20260508092114 | 56 | 202 | 1.0 | 2.0 | 0.00 | 0.00 | 0.00 | 1014.3 | |
| 20260508092013 | 56 | 225 | 2.0 | 2.0 | 0.00 | 0.00 | 0.00 | 1014.3 | |
| 20260508091913 | 56 | 157 | 2.0 | 2.0 | 0.00 | 0.00 | 0.00 | 1014.3 | |
| 20260508091213 | 56 | 225 | 3.0 | 3.0 | 0.00 | 0.00 | 0.00 | 1014.5 | |
| 20260508091113 | 56 | 225 | 2.0 | 3.0 | 0.00 | 0.00 | 0.00 | 1014.4 | |
| 20260508090713 | 56 | 202 | 2.0 | 2.0 | 0.00 | 0.00 | 0.00 | 1014.3 | |
| 20260508085113 | 56 | 225 | 1.0 | 2.0 | 0.00 | 0.00 | 0.00 | 1014.5 | |
| 20260508084113 | 57 | 292 | 1.0 | 2.0 | 0.00 | 0.00 | 0.00 | 1014.5 | |
| 20260508083713 | 57 | 247 | 2.0 | 4.0 | 0.00 | 0.00 | 0.00 | 1014.5 | |
| 20260508083313 | 57 | 225 | 2.0 | 3.0 | 0.00 | 0.00 | 0.00 | 1014.6 | |
| 20260508083213 | 57 | 247 | 1.0 | 2.0 | 0.00 | 0.00 | 0.00 | 1014.6 | |
| 20260508083113 | 57 | 202 | 2.0 | 2.0 | 0.00 | 0.00 | 0.00 | 1014.6 | |
| 20260508083013 | 57 | 247 | 2.0 | 3.0 | 0.00 | 0.00 | 0.00 | 1014.6 | |
| 20260508082913 | 57 | 225 | 2.0 | 3.0 | 0.00 | 0.00 | 0.00 | 1014.6 | |
| 20260508082813 | 57 | 202 | 2.0 | 4.0 | 0.00 | 0.00 | 0.00 | 1014.6 | |
| 20260508082113 | 57 | 225 | 1.0 | 1.0 | 0.00 | 0.00 | 0.00 | 1014.7 | |
| 20260508082013 | 57 | 202 | 1.0 | 2.0 | 0.00 | 0.00 | 0.00 | 1014.6 | |
| 20260508081313 | 57 | 225 | 1.0 | 2.0 | 0.00 | 0.00 | 0.00 | 1014.9 | |
| 20260508081214 | 57 | 202 | 1.0 | 2.0 | 0.00 | 0.00 | 0.00 | 1014.8 | |
| 20260508081113 | 57 | 180 | 1.0 | 2.0 | 0.00 | 0.00 | 0.00 | 1014.7 | |
| 20260508080713 | 57 | 225 | 1.0 | 1.0 | 0.00 | 0.00 | 0.00 | 1014.9 | |
| 20260508080313 | 57 | 202 | 1.0 | 2.0 | 0.00 | 0.00 | 0.00 | 1014.9 | |
| 20260508075313 | 57 | 202 | 2.0 | 3.0 | 0.00 | 0.00 | 0.00 | 1014.8 | |
| 20260508075213 | 57 | 225 | 0.0 | 1.0 | 0.00 | 0.00 | 0.00 | 1014.9 | |
| 20260508075113 | 57 | 292 | 0.0 | 1.0 | 0.00 | 0.00 | 0.00 | 1014.7 | |
| 20260508075013 | 57 | 292 | 0.0 | 0.0 | 0.00 | 0.00 | 0.00 | 1014.7 | |
| 20260508074613 | 57 | 225 | 0.0 | 1.0 | 0.00 | 0.00 | 0.00 | 1014.9 | |
| 20260508074514 | 57 | 247 | 0.0 | 1.0 | 0.00 | 0.00 | 0.00 | 1014.7 | |
| 20260508074414 | 58 | 225 | 0.0 | 1.0 | 0.00 | 0.00 | 0.00 | 1015.0 | |
| 20260508074013 | 58 | 225 | 2.0 | 3.0 | 0.00 | 0.00 | 0.00 | 1014.9 | |
| 20260508073313 | 58 | 225 | 1.0 | 2.0 | 0.00 | 0.00 | 0.00 | 1014.8 | |
| 20260508072913 | 58 | 225 | 1.0 | 2.0 | 0.00 | 0.00 | 0.00 | 1014.9 | |
| 20260508071314 | 58 | 225 | 1.0 | 2.0 | 0.00 | 0.00 | 0.00 | 1015.0 | |
| 20260508071213 | 58 | 180 | 2.0 | 3.0 | 0.00 | 0.00 | 0.00 | 1014.9 | |
| 20260508070813 | 59 | 270 | 1.0 | 2.0 | 0.00 | 0.00 | 0.00 | 1014.8 | |
| 20260508070413 | 59 | 225 | 1.0 | 2.0 | 0.00 | 0.00 | 0.00 | 1014.8 | |
| 20260508065713 | 59 | 202 | 1.0 | 1.0 | 0.00 | 0.00 | 0.00 | 1014.7 | |
| 20260508065313 | 59 | 225 | 2.0 | 2.0 | 0.00 | 0.00 | 0.00 | 1014.9 | |
| 20260508064913 | 59 | 225 | 2.0 | 2.0 | 0.00 | 0.00 | 0.00 | 1014.6 | |
| 20260508064213 | 59 | 202 | 1.0 | 1.0 | 0.00 | 0.00 | 0.00 | 1014.7 | |
| 20260508063513 | 59 | 180 | 1.0 | 1.0 | 0.00 | 0.00 | 0.00 | 1014.7 | |
| 20260508062513 | 59 | 202 | 1.0 | 2.0 | 0.00 | 0.00 | 0.00 | 1014.7 | |
| 20260508062113 | 59 | 202 | 0.0 | 1.0 | 0.00 | 0.00 | 0.00 | 1014.8 | |
| 20260508060513 | 59 | 180 | 1.0 | 1.0 | 0.00 | 0.00 | 0.00 | 1014.7 | |
| 20260508060413 | 59 | 202 | 1.0 | 2.0 | 0.00 | 0.00 | 0.00 | 1014.7 | |
| 20260508055713 | 60 | 247 | 0.0 | 1.0 | 0.00 | 0.00 | 0.00 | 1014.7 | |
| 20260508055313 | 60 | 157 | 0.0 | 0.0 | 0.00 | 0.00 | 0.00 | 1014.5 | |
| 20260508055213 | 60 | 157 | 0.0 | 0.0 | 0.00 | 0.00 | 0.00 | 1014.5 | |
| 20260508054213 | 60 | 202 | 0.0 | 1.0 | 0.00 | 0.00 | 0.00 | 1014.5 | |
| 20260508054114 | 60 | 202 | 1.0 | 1.0 | 0.00 | 0.00 | 0.00 | 1014.6 | |
| 20260508053413 | 60 | 225 | 1.0 | 2.0 | 0.00 | 0.00 | 0.00 | 1014.6 | |
| 20260508053013 | 61 | 225 | 1.0 | 2.0 | 0.00 | 0.00 | 0.00 | 1014.5 | |
| 20260508052613 | 61 | 225 | 2.0 | 3.0 | 0.00 | 0.00 | 0.00 | 1014.7 | |
| 20260508052213 | 61 | 180 | 1.0 | 2.0 | 0.00 | 0.00 | 0.00 | 1014.5 | |
| 20260508051513 | 61 | 180 | 0.0 | 1.0 | 0.00 | 0.00 | 0.00 | 1014.5 | |
| 20260508051413 | 61 | 225 | 2.0 | 3.0 | 0.00 | 0.00 | 0.00 | 1014.6 | |
| 20260508051313 | 61 | 225 | 2.0 | 3.0 | 0.00 | 0.00 | 0.00 | 1014.5 | |
| 20260508050614 | 61 | 202 | 1.0 | 2.0 | 0.00 | 0.00 | 0.00 | 1014.7 | |
| 20260508050513 | 61 | 247 | 2.0 | 2.0 | 0.00 | 0.00 | 0.00 | 1014.7 | |
| 20260508050413 | 61 | 270 | 1.0 | 2.0 | 0.00 | 0.00 | 0.00 | 1014.5 | |
| 20260508044513 | 62 | 202 | 1.0 | 2.0 | 0.00 | 0.00 | 0.00 | 1014.5 | |
| 20260508044413 | 62 | 202 | 0.0 | 1.0 | 0.00 | 0.00 | 0.00 | 1014.4 | |
| 20260508044313 | 62 | 202 | 0.0 | 1.0 | 0.00 | 0.00 | 0.00 | 1014.3 | |
| 20260508044213 | 62 | 157 | 0.0 | 1.0 | 0.00 | 0.00 | 0.00 | 1014.3 | |
| 20260508044113 | 62 | 157 | 1.0 | 1.0 | 0.00 | 0.00 | 0.00 | 1014.3 | |
| 20260508044013 | 62 | 180 | 1.0 | 3.0 | 0.00 | 0.00 | 0.00 | 1014.4 | |
| 20260508043613 | 62 | 225 | 0.0 | 1.0 | 0.00 | 0.00 | 0.00 | 1014.2 | |
| 20260508043513 | 62 | 157 | 1.0 | 1.0 | 0.00 | 0.00 | 0.00 | 1014.3 | |
| 20260508043414 | 62 | 157 | 1.0 | 3.0 | 0.00 | 0.00 | 0.00 | 1014.3 | |
| 20260508041513 | 63 | 202 | 0.0 | 1.0 | 0.00 | 0.00 | 0.00 | 1013.9 | |
| 20260508041413 | 63 | 180 | 1.0 | 1.0 | 0.00 | 0.00 | 0.00 | 1014.1 | |
| 20260508041313 | 63 | 225 | 2.0 | 2.0 | 0.00 | 0.00 | 0.00 | 1014.0 | |
| 20260508041213 | 63 | 225 | 1.0 | 2.0 | 0.00 | 0.00 | 0.00 | 1014.2 | |
| 20260508040513 | 64 | 225 | 2.0 | 3.0 | 0.00 | 0.00 | 0.00 | 1014.0 | |
| 20260508035813 | 64 | 202 | 1.0 | 3.0 | 0.00 | 0.00 | 0.00 | 1013.8 | |
| 20260508034813 | 64 | 225 | 1.0 | 2.0 | 0.00 | 0.00 | 0.00 | 1013.5 | |
| 20260508034713 | 64 | 157 | 1.0 | 3.0 | 0.00 | 0.00 | 0.00 | 1013.1 | |
| 20260508034013 | 65 | 180 | 1.0 | 2.0 | 0.00 | 0.00 | 0.00 | 1013.3 | |
| 20260508033614 | 65 | 180 | 0.0 | 1.0 | 0.00 | 0.00 | 0.00 | 1013.2 | |
| 20260508033513 | 65 | 157 | 2.0 | 2.0 | 0.00 | 0.00 | 0.00 | 1013.3 | |
| 20260508033113 | 65 | 202 | 2.0 | 4.0 | 0.00 | 0.00 | 0.00 | 1013.0 | |
| 20260508031513 | 66 | 270 | 2.0 | 3.0 | 0.00 | 0.00 | 0.00 | 1012.9 | |
| 20260508031113 | 66 | 202 | 2.0 | 3.0 | 0.00 | 0.00 | 0.00 | 1012.9 | |
| 20260508031014 | 66 | 202 | 2.0 | 4.0 | 0.00 | 0.00 | 0.00 | 1012.9 | |
| 20260508030913 | 66 | 225 | 1.0 | 2.0 | 0.00 | 0.00 | 0.00 | 1012.8 | |
| 20260508030513 | 66 | 225 | 3.0 | 4.0 | 0.00 | 0.00 | 0.00 | 1012.8 | |
| 20260508030413 | 66 | 202 | 2.0 | 3.0 | 0.00 | 0.00 | 0.00 | 1012.9 | |
| 20260508030313 | 66 | 225 | 2.0 | 3.0 | 0.00 | 0.00 | 0.00 | 1012.8 | |
| 20260508030213 | 66 | 225 | 2.0 | 4.0 | 0.00 | 0.00 | 0.00 | 1012.8 | |
| 20260508025813 | 67 | 202 | 2.0 | 3.0 | 0.00 | 0.00 | 0.00 | 1012.6 | |
| 20260508025413 | 67 | 202 | 4.0 | 5.0 | 0.00 | 0.00 | 0.00 | 1012.6 | |
| 20260508025013 | 67 | 202 | 3.0 | 4.0 | 0.00 | 0.00 | 0.00 | 1012.6 | |
| 20260508024913 | 67 | 180 | 2.0 | 3.0 | 0.00 | 0.00 | 0.00 | 1012.6 | |
| 20260508024513 | 67 | 202 | 3.0 | 5.0 | 0.00 | 0.00 | 0.00 | 1012.6 | |
| 20260508023213 | 68 | 202 | 2.0 | 2.0 | 0.00 | 0.00 | 0.00 | 1012.5 | |
| 20260508023113 | 68 | 90 | 3.0 | 5.0 | 0.00 | 0.00 | 0.00 | 1012.5 | |
| 20260508022713 | 68 | 90 | 2.0 | 2.0 | 0.00 | 0.00 | 0.00 | 1012.3 | |
| 20260508022313 | 68 | 202 | 1.0 | 2.0 | 0.00 | 0.00 | 0.00 | 1012.3 | |
| 20260508022213 | 68 | 270 | 2.0 | 4.0 | 0.00 | 0.00 | 0.00 | 1012.1 | |
| 20260508021813 | 69 | 135 | 1.0 | 2.0 | 0.00 | 0.00 | 0.00 | 1012.1 | |
| 20260508021713 | 69 | 112 | 1.0 | 2.0 | 0.00 | 0.00 | 0.00 | 1012.1 | |
| 20260508021613 | 69 | 157 | 3.0 | 4.0 | 0.00 | 0.00 | 0.00 | 1012.2 | |
| 20260508020913 | 69 | 202 | 1.0 | 3.0 | 0.00 | 0.00 | 0.00 | 1012.0 | |
| 20260508020813 | 69 | 157 | 4.0 | 9.0 | 0.00 | 0.00 | 0.00 | 1012.1 | |
| 20260508020713 | 69 | 225 | 4.0 | 6.0 | 0.00 | 0.00 | 0.00 | 1012.1 | |
| 20260508020614 | 69 | 157 | 3.0 | 6.0 | 0.00 | 0.00 | 0.00 | 1012.1 | |
| 20260508020513 | 69 | 202 | 2.0 | 4.0 | 0.00 | 0.00 | 0.00 | 1012.2 | |
| 20260508020113 | 70 | 225 | 4.0 | 8.0 | 0.00 | 0.00 | 0.00 | 1012.0 | |
| 20260508014813 | 71 | 225 | 2.0 | 4.0 | 0.00 | 0.00 | 0.00 | 1011.6 | |
| 20260508013213 | 72 | 135 | 3.0 | 4.0 | 0.00 | 0.00 | 0.00 | 1011.6 | |
| 20260508013113 | 72 | 202 | 3.0 | 5.0 | 0.00 | 0.00 | 0.00 | 1011.6 | |
| 20260508013013 | 72 | 292 | 4.0 | 6.0 | 0.00 | 0.00 | 0.00 | 1011.6 | |
| 20260508012013 | 73 | 202 | 3.0 | 4.0 | 0.00 | 0.00 | 0.00 | 1011.6 | |
| 20260508011613 | 73 | 225 | 3.0 | 6.0 | 0.00 | 0.00 | 0.00 | 1011.7 | |
| 20260508010913 | 73 | 225 | 6.0 | 8.0 | 0.00 | 0.00 | 0.00 | 1011.6 | |
| 20260508010813 | 74 | 225 | 5.0 | 9.0 | 0.00 | 0.00 | 0.00 | 1011.6 | |
| 20260508004313 | 75 | 225 | 4.0 | 6.0 | 0.00 | 0.00 | 0.00 | 1011.5 | |
| 20260508004213 | 75 | 270 | 3.0 | 5.0 | 0.00 | 0.00 | 0.00 | 1011.5 | |
| 20260508004113 | 75 | 180 | 2.0 | 3.0 | 0.00 | 0.00 | 0.00 | 1011.6 | |
| 20260508004013 | 75 | 180 | 2.0 | 4.0 | 0.00 | 0.00 | 0.00 | 1011.5 | |
| 20260508003913 | 75 | 180 | 3.0 | 5.0 | 0.00 | 0.00 | 0.00 | 1011.7 | |
| 20260508003514 | 75 | 180 | 3.0 | 4.0 | 0.00 | 0.00 | 0.00 | 1011.6 | |
| 20260508002513 | 76 | 202 | 5.0 | 7.0 | 0.00 | 0.00 | 0.00 | 1011.6 | |
| 20260508002113 | 76 | 157 | 6.0 | 9.0 | 0.00 | 0.00 | 0.00 | 1011.5 | |
| 20260508001713 | 76 | 225 | 4.0 | 6.0 | 0.00 | 0.00 | 0.00 | 1011.5 | |
| 20260508001613 | 76 | 180 | 4.0 | 6.0 | 0.00 | 0.00 | 0.00 | 1011.6 | |
| 20260508001513 | 76 | 202 | 5.0 | 7.0 | 0.00 | 0.00 | 0.00 | 1011.6 | |
| 20260508001113 | 76 | 135 | 2.0 | 3.0 | 0.00 | 0.00 | 0.00 | 1011.6 | |
| 20260508001013 | 76 | 180 | 3.0 | 4.0 | 0.00 | 0.00 | 0.00 | 1011.6 | |
| 20260508000913 | 76 | 202 | 4.0 | 7.0 | 0.00 | 0.00 | 0.00 | 1011.5 | |
| 20260508000213 | 77 | 135 | 4.0 | 6.0 | 0.00 | 0.00 | 0.00 | 1011.6 | |
| 20260508000113 | 77 | 202 | 4.0 | 7.0 | 0.00 | 0.00 | 0.00 | 1011.7 | |
| 20260508000014 | 77 | 225 | 6.0 | 8.0 | 0.00 | 0.00 | 0.00 | 1011.6 | |
| 20260507235913 | 77 | 225 | 7.0 | 11.0 | 0.00 | 0.00 | 0.00 | 1011.6 | |
| 20260507235213 | 77 | 225 | 4.0 | 9.0 | 0.00 | 0.00 | 0.00 | 1011.6 | |
| 20260507233913 | 78 | 180 | 1.0 | 2.0 | 0.00 | 0.00 | 0.00 | 1011.4 | |
| 20260507233813 | 78 | 180 | 3.0 | 4.0 | 0.00 | 0.00 | 0.00 | 1011.6 | |
| 20260507232813 | 78 | 180 | 3.0 | 6.0 | 0.00 | 0.00 | 0.00 | 1011.6 | |
| 20260507232713 | 78 | 180 | 3.0 | 7.0 | 0.00 | 0.00 | 0.00 | 1011.7 | |
| 20260507232613 | 78 | 225 | 5.0 | 12.0 | 0.00 | 0.00 | 0.00 | 1011.6 | |
| 20260507232213 | 78 | 135 | 5.0 | 8.0 | 0.00 | 0.00 | 0.00 | 1011.7 | |
| 20260507232113 | 78 | 225 | 3.0 | 7.0 | 0.00 | 0.00 | 0.00 | 1011.5 | |
| 20260507231713 | 79 | 225 | 5.0 | 8.0 | 0.00 | 0.00 | 0.00 | 1011.7 | |
| 20260507231613 | 79 | 247 | 5.0 | 8.0 | 0.00 | 0.00 | 0.00 | 1011.7 | |
| 20260507231513 | 80 | 202 | 3.0 | 8.0 | 0.00 | 0.00 | 0.00 | 1011.6 | |
| 20260507230813 | 79 | 202 | 5.0 | 8.0 | 0.00 | 0.00 | 0.00 | 1011.7 | |
| 20260507230113 | 81 | 225 | 8.0 | 12.0 | 0.00 | 0.00 | 0.00 | 1011.7 | |
| 20260507225713 | 81 | 225 | 3.0 | 5.0 | 0.00 | 0.00 | 0.00 | 1011.9 | |
| 20260507225313 | 81 | 157 | 5.0 | 8.0 | 0.00 | 0.00 | 0.00 | 1011.6 | |
| 20260507224913 | 81 | 202 | 7.0 | 11.0 | 0.00 | 0.00 | 0.00 | 1011.6 | |
| 20260507224514 | 82 | 202 | 7.0 | 9.0 | 0.00 | 0.00 | 0.00 | 1011.7 | |
| 20260507223213 | 82 | 157 | 5.0 | 9.0 | 0.00 | 0.00 | 0.00 | 1012.0 | |
| 20260507222513 | 82 | 157 | 3.0 | 4.0 | 0.00 | 0.00 | 0.00 | 1011.9 | |
| 20260507222413 | 82 | 180 | 3.0 | 4.0 | 0.00 | 0.00 | 0.00 | 1011.8 | |
| 20260507222013 | 83 | 180 | 7.0 | 12.0 | 0.00 | 0.00 | 0.00 | 1012.0 | |
| 20260507221613 | 83 | 247 | 5.0 | 7.0 | 0.00 | 0.00 | 0.00 | 1012.1 | |
| 20260507221213 | 83 | 202 | 5.0 | 13.0 | 0.00 | 0.00 | 0.00 | 1012.1 | |
| 20260507220513 | 84 | 180 | 3.0 | 5.0 | 0.00 | 0.00 | 0.00 | 1012.0 | |
| 20260507220113 | 84 | 202 | 2.0 | 4.0 | 0.00 | 0.00 | 0.00 | 1011.9 | |
| 20260507214813 | 84 | 112 | 2.0 | 4.0 | 0.00 | 0.00 | 0.00 | 1012.3 | |
| 20260507213813 | 85 | 180 | 6.0 | 9.0 | 0.00 | 0.00 | 0.00 | 1012.3 | |
| 20260507213413 | 85 | 202 | 5.0 | 10.0 | 0.00 | 0.00 | 0.00 | 1012.0 | |
| 20260507212713 | 85 | 225 | 3.0 | 4.0 | 0.00 | 0.00 | 0.00 | 1012.2 | |
| 20260507211413 | 85 | 202 | 3.0 | 4.0 | 0.00 | 0.00 | 0.00 | 1012.7 | |
| 20260507211013 | 86 | 180 | 4.0 | 7.0 | 0.00 | 0.00 | 0.00 | 1012.7 | |
| 20260507210913 | 86 | 157 | 2.0 | 4.0 | 0.00 | 0.00 | 0.00 | 1012.6 | |
| 20260507210513 | 85 | 202 | 3.0 | 5.0 | 0.00 | 0.00 | 0.00 | 1012.5 | |
| 20260507205813 | 85 | 157 | 4.0 | 6.0 | 0.00 | 0.00 | 0.00 | 1012.6 | |
| 20260507204813 | 86 | 202 | 2.0 | 5.0 | 0.00 | 0.00 | 0.00 | 1012.8 | |
| 20260507204713 | 85 | 180 | 3.0 | 6.0 | 0.00 | 0.00 | 0.00 | 1012.9 | |
| 20260507202813 | 83 | 225 | 4.0 | 7.0 | 0.00 | 0.00 | 0.00 | 1012.9 | |
| 20260507202713 | 83 | 225 | 3.0 | 5.0 | 0.00 | 0.00 | 0.00 | 1013.1 | |
| 20260507202313 | 83 | 202 | 2.0 | 4.0 | 0.00 | 0.00 | 0.00 | 1013.0 | |
| 20260507201013 | 82 | 225 | 2.0 | 4.0 | 0.00 | 0.00 | 0.00 | 1013.3 | |
| 20260507200613 | 82 | 135 | 1.0 | 2.0 | 0.00 | 0.00 | 0.00 | 1013.4 | |
| 20260507195313 | 80 | 157 | 4.0 | 6.0 | 0.00 | 0.00 | 0.00 | 1013.5 | |
| 20260507195213 | 80 | 225 | 4.0 | 5.0 | 0.00 | 0.00 | 0.00 | 1013.4 | |
| 20260507194813 | 80 | 157 | 3.0 | 6.0 | 0.00 | 0.00 | 0.00 | 1013.7 | |
| 20260507194713 | 80 | 225 | 5.0 | 8.0 | 0.00 | 0.00 | 0.00 | 1013.4 | |
| 20260507194013 | 79 | 202 | 4.0 | 5.0 | 0.00 | 0.00 | 0.00 | 1013.6 | |
| 20260507193313 | 79 | 157 | 1.0 | 3.0 | 0.00 | 0.00 | 0.00 | 1013.5 | |
| 20260507191113 | 77 | 292 | 3.0 | 6.0 | 0.00 | 0.00 | 0.00 | 1013.8 | |
| 20260507190713 | 77 | 157 | 3.0 | 6.0 | 0.00 | 0.00 | 0.00 | 1013.8 | |
| 20260507190013 | 77 | 225 | 2.0 | 4.0 | 0.00 | 0.00 | 0.00 | 1014.0 | |
| 20260507185913 | 77 | 225 | 4.0 | 6.0 | 0.00 | 0.00 | 0.00 | 1014.0 | |
| 20260507185813 | 77 | 225 | 2.0 | 4.0 | 0.00 | 0.00 | 0.00 | 1013.9 | |
| 20260507185713 | 77 | 157 | 2.0 | 4.0 | 0.00 | 0.00 | 0.00 | 1014.0 | |
| 20260507185613 | 78 | 225 | 4.0 | 7.0 | 0.00 | 0.00 | 0.00 | 1013.9 | |
| 20260507185513 | 78 | 225 | 1.0 | 3.0 | 0.00 | 0.00 | 0.00 | 1013.9 |